Weather History for KBKF - September, 2013

Change the Weather History Date:

Thursday, September 5, 2013

  Actual Average Record
Temperature  
Mean Temperature 80 °F -  
Max Temperature 95 °F 79 °F 95 °F (2013)
Min Temperature 64 °F 53 °F 42 °F (2008)
Cooling Degree Days 14    
Growing Degree Days 30 (Base 50)    
Moisture  
Dew Point 49 °F    
Average Humidity 41    
Maximum Humidity 64    
Minimum Humidity 16    
Precipitation  
Precipitation 0.00 in - - ()
Sea Level Pressure  
Sea Level Pressure 30.02 in    
Wind  
Wind Speed 5 mph (SSW)    
Max Wind Speed 9 mph    
Max Gust Speed -    
Visibility 10 miles    
Events Thunderstorm    
Averages and records for this station are not official NWS values.
T = Trace of Precipitation, MM = Missing Value Source: NWS Daily Summary

Daily Weather History Graph

Daily Weather History Graph

Search for Another Location

Airport or City:

Trip Planner

Search our weather history database for the weather conditions in past years. The results will help you decide how hot, cold, wet, or windy it might be!

Date:

Astronomy

Sep. 05, 2013 Rise Set
Actual Time 6:31 AM MDT 7:23 PM MDT
Civil Twilight 6:03 AM MDT 7:50 PM MDT
Nautical Twilight 5:31 AM MDT 8:23 PM MDT
Astronomical Twilight 4:57 AM MDT 8:56 PM MDT
Moon 6:45 AM MDT (9/5) 7:16 PM MDT (9/5)
Length of Visible Light 13h 47m
Length of Day
12h 52m
New Moon, 0% of the Moon is Illuminated
Sep 5
New Moon
Sep 12
First Quarter
Sep 19
Full
Sep 26
Last Quarter
Oct 4
New

Hourly Weather History & Observations

Time (MDT) Temp. Heat Index Dew Point Humidity Pressure Visibility Wind Dir Wind Speed Gust Speed Precip Events Conditions
12:55 AM 69.8 °F - 51.8 °F 53% 30.03 in 10.0 mi SW 5.8 mph - N/A   Scattered Clouds
1:55 AM 68.0 °F - 51.8 °F 56% 30.03 in 10.0 mi SSW 2.3 mph - N/A   Scattered Clouds
2:55 AM 66.2 °F - 51.8 °F 60% 30.03 in 10.0 mi SSW 9.2 mph - N/A   Scattered Clouds
3:55 AM 64.4 °F - 51.8 °F 64% 30.03 in 10.0 mi SSW 5.8 mph - N/A   Scattered Clouds
4:55 AM 66.2 °F - 51.8 °F 60% 30.06 in 10.0 mi WSW 3.5 mph - N/A   Scattered Clouds
5:55 AM 64.4 °F - 51.8 °F 64% 30.07 in 10.0 mi West 6.9 mph - N/A   Mostly Cloudy
6:55 AM 64.4 °F - 51.8 °F 64% 30.08 in 70.0 mi SW 4.6 mph - N/A   Mostly Cloudy
7:55 AM 66.2 °F - 53.6 °F 64% 30.08 in 70.0 mi WSW 5.8 mph - N/A   Mostly Cloudy
8:55 AM 68.0 °F - 51.8 °F 56% 30.09 in 70.0 mi WSW 4.6 mph - N/A   Mostly Cloudy
9:55 AM 73.4 °F - 53.6 °F 50% 30.09 in 70.0 mi SW 2.3 mph - N/A   Mostly Cloudy
10:55 AM 80.6 °F - 48.2 °F 32% 30.07 in 70.0 mi SW 2.3 mph - N/A   Mostly Cloudy
11:55 AM 87.8 °F - 48.2 °F 25% 30.01 in 70.0 mi SSE 5.8 mph - N/A   Scattered Clouds
12:55 PM 91.4 °F - 42.8 °F 18% 29.99 in 70.0 mi SW 5.8 mph - N/A   Scattered Clouds
1:55 PM 93.2 °F - 42.8 °F 17% 29.97 in 70.0 mi WSW 1.2 mph - N/A   Scattered Clouds
2:55 PM 95.0 °F - 42.8 °F 16% 29.95 in 70.0 mi SE 9.2 mph - N/A   Mostly Cloudy
3:55 PM 91.4 °F - 41.0 °F 17% 29.95 in 70.0 mi East 9.2 mph - N/A   Mostly Cloudy
4:55 PM 91.4 °F - 44.6 °F 20% 29.95 in 70.0 mi SSE 9.2 mph - N/A Thunderstorm Mostly Cloudy
5:55 PM 80.6 °F 80.5 °F 55.4 °F 42% 29.98 in 70.0 mi SE 4.6 mph - N/A Thunderstorm Mostly Cloudy
6:55 PM 80.6 °F - 51.8 °F 37% 29.98 in 70.0 mi SE 4.6 mph - N/A Thunderstorm Mostly Cloudy
7:55 PM 80.6 °F - 46.4 °F 30% 30.00 in 25.0 mi West 8.1 mph - N/A   Mostly Cloudy
8:55 PM 80.6 °F - 46.4 °F 30% 30.00 in 25.0 mi SSW 3.5 mph - N/A   Mostly Cloudy
9:55 PM 75.2 °F - 46.4 °F 36% 30.01 in 25.0 mi WNW 4.6 mph - N/A   Mostly Cloudy
10:55 PM 73.4 °F - 48.2 °F 41% 29.98 in 10.0 mi South 4.6 mph - N/A   Scattered Clouds
11:55 PM 69.8 °F - 44.6 °F 40% 29.97 in 10.0 mi South 6.9 mph - N/A   Scattered Clouds